Back to catalog

STARLINK-30554

AliveCommunicationsVLEO
NORAD 58048·PAYLOAD·🇺🇸 United States

Launched Oct 9, 2023 from Vandenberg Space Force Base

Loading…

Next Passes (next 24 hours)

TLE

FreshSource: CelesTrak SupGP

Epoch: Sep 14, 2026, 14:42 UTC

1 58048C 23156W   26257.61298611 -.00038818  00000+0 -11473-2 0  2572
2 58048  53.1588   8.8974 0001431  75.6338 250.9520 15.34399309    14

Track STARLINK-30554 in real time with AllMySat

Download on the App Store